Starlink 4202

operational
NORAD ID: 52848 Int'l Des: 2022-062 Owner: SPXS Country: US Constellation: starlink
LEOCIRCULAR

Starlink 4202について

説明を読み込み中...

リアルタイム位置

3D地球を読み込み中...

次回通過

高度履歴

Altitude vs Time

uPlot chart will show altitude changes over time

軌道要素

1 52848U 22062U 26032.82958771 .00000606 00000-0 56142-4 0 9993
2 52848 53.2166 195.1020 0000599 94.4345 265.6716 15.08838753200375
Epoch: Feb 1, 2026 • Age: 40 hours

現在のステータス

高度 547.7 km
速度 7.59 km/s
衛星直下点 -26.11°S, 139.95°W
打ち上げ日 Jun 17, 2022
運用期間 3.6 years
タイプ internet

技術仕様

分類 Payload
質量 297.00 kg
乾燥質量 275.00 kg
総質量 297.00 kg
長さ 0.20 m
直径 2.80 m
スパン 9.00 m
形状 Box + pan
製造者 SPXS
バスタイプ Starlink
フェーズステータス In Orbit
所有者/国 SPXS/US

大規模コンステレーション

Loading constellations...